Flag for France Weather past 2 weeks in Montpellier, France

Now
64 °F

Sunny.


Feels Like: 64 °F
Forecast: 47 / 66 °F
Wind: 17 mph from Southeast

Location: Montpellier Airport


UV Index: 3 (Moderate)

Visibility: 10 mi


Pressure: 30.09 "Hg

Humidity: 56%

Dew point: 48 °F

Location of MontpellierLocation

Historic Weather in Montpellier

°F

Montpellier temperature yesterday

Maximum temperature yesterday: 79 °F (at 3:30 PM)
Minimum temperature yesterday: 54 °F (at 7:30 AM)
Average temperature yesterday: 66 °F

Past Weeks' High & Low Weather Summary

 TemperatureHumidityPressure
High79 °F (Apr 15, 3:30 PM)100% (Apr 11, 3:00 AM)30.24 "Hg (Apr 11, 3:00 AM)
Low45 °F (Apr 9, 7:30 AM)10% (Apr 15, 4:30 PM)29.59 "Hg (Apr 3, 9:00 AM)
Average61 °F60%29.97 "Hg
* Reported Apr 1 3:00 PM — Apr 16 3:30 PM, Montpellier, Weather by CustomWeather, © 2014

Note: Actual official high and low records may vary slightly from our data, if they occured in-between our weather recording intervals... More about our weather records

Advertising

Historic Weather Conditions — Data for Previous 24 hours

 ConditionsComfort  
Time TempWeatherWind HumidityBarometerVisibility
3:30 PM
Apr 16
66 °FSunny.17 mph40%30.09 "Hg10 mi
3:00 PM72 °FSunny.15 mph19%30.09 "Hg10 mi
2:30 PM70 °FSunny.15 mph17%30.09 "Hg10 mi
2:00 PM68 °FSunny.21 mph23%30.07 "Hg10 mi
1:30 PM68 °FSunny.17 mph24%30.09 "Hg10 mi
1:00 PM70 °FSunny.14 mph23%30.09 "Hg10 mi
12:30 PM68 °FSunny.6 mph18%30.07 "Hg10 mi
12:00 PM68 °FSunny.10 mph18%30.07 "Hg10 mi
11:30 AM66 °FSunny.9 mph19%30.07 "Hg10 mi
11:00 AM64 °FPassing clouds.14 mph22%30.07 "HgN/A
10:30 AM61 °FPassing clouds.13 mph22%30.07 "HgN/A
10:00 AM59 °FPassing clouds.10 mph25%30.07 "HgN/A
9:30 AM57 °FSunny.12 mph27%30.09 "Hg10 mi
9:00 AM55 °FSunny.12 mph31%30.07 "Hg10 mi
8:30 AM54 °FPassing clouds.8 mph30%30.07 "HgN/A
8:00 AM52 °FSunny.9 mph32%30.07 "Hg10 mi
7:30 AM48 °FClear.8 mph37%30.07 "Hg10 mi
7:00 AM46 °FPassing clouds.8 mph40%30.07 "HgN/A
6:30 AM48 °FClear.6 mph37%30.07 "Hg10 mi
6:00 AM50 °FClear.6 mph35%30.07 "Hg10 mi
5:00 AM50 °FPassing clouds.3 mph35%30.07 "HgN/A
4:30 AM50 °FClear.6 mph37%30.07 "Hg10 mi
4:00 AM52 °FClear.6 mph35%30.07 "HgN/A
3:30 AM54 °FClear.12 mph33%30.07 "HgN/A
3:00 AM55 °FClear.15 mph31%30.07 "HgN/A
1:30 AM57 °FClear.10 mph29%30.09 "HgN/A
12:30 AM57 °FClear.13 mph29%30.07 "Hg10 mi
11:30 PM
Apr 15
61 °FClear.14 mph23%30.07 "Hg10 mi
11:00 PM61 °FClear.9 mph22%30.07 "Hg10 mi
10:30 PM63 °FPassing clouds.7 mph20%30.04 "HgN/A
10:10 PM63 °FPassing clouds.7 mph22%30.04 "HgN/A
9:30 PM64 °FClear.8 mph21%30.01 "Hg10 mi
9:00 PM66 °FSunny.12 mph19%29.98 "Hg10 mi
8:30 PM68 °FSunny.14 mph17%29.98 "Hg10 mi
8:05 PM70 °FSunny.14 mph15%29.98 "Hg10 mi
7:30 PM72 °FSunny.18 mph15%29.95 "Hg10 mi
7:00 PM73 °FSunny.17 mph15%29.95 "Hg10 mi
6:30 PM75 °FSunny.18 mph14%29.95 "Hg10 mi
6:00 PM77 °FSunny.20 mph11%29.92 "Hg10 mi
5:30 PM77 °FSunny.17 mph12%29.92 "Hg10 mi
5:00 PM79 °FPassing clouds.18 mph11%29.92 "HgN/A
4:30 PM79 °FSunny.21 mph10%29.92 "Hg10 mi
4:00 PM77 °FSunny.15 mph11%29.92 "Hg10 mi
Weather by CustomWeather, © 2014

See weather overview